KUIPER-00076

Last updated on Sat Aug 16 2025 00:02:05 GMT+0000 (Coordinated Universal Time)

1 64823U 25151H 25227.58336806 .00053529 00000+0 15203-2 0 9990 2 64823 51.8768 141.4672 0004871 250.2954 29.0950 15.35654875 5898
UTC large
Height (km)
Speed (km/s)
/
Latitude / Longitude
Inclination (degrees)
Orbital Period (minutes)
Azimuth
Elevation
Range (km)
Doppler Factor

Next 0 passes for location: London (51.5072 / 0.1276)

Sorry there are no passes over London.